SCP
0 0 0 0 0 0 0 0 0 0 0 0 0 0 0 0 0 0 0 0 0 0 0 0 0 0 0 0 0 0 0 0 0 0 0 0 0 0 0 0 0 0 0 0
0 0 0 0 0 0 0 0 0 0 0 0 0 0 0 0 0 0 0 0 0 0 0 0 0 0 0 0 0 0 0 0 0 0 0 0 0 0 0 0 0 0 0 0
0 0 0 0 0 0 0 0 0 0 0 0 0 0 0 0 0 0 0 0 0 0 0 0 0 0 0 0 0 0 0 0 0 0 0 0 0 0 0 0 0 0 0 0
0 0 0 0 0 0 0 0 0 0 0 0 0 0 0 0 0 0 0 0 0 0 0 0 0 0 0 0 0 0 0 0 0 0 0 0 0 0 0 0 0 0 0 0
0 0 0 0 0 0 0 0 0 0 0 0 0 0 -0 0 0 0 0 0 0 0 0 0 0 0 0 0 0 0 0 0 0 0 0 0 0 0 0 0 0 0 0 0
0 0 0 0 0 0 0 0 0 0 0 0 0 0 -0 0 0 0 0 0 0 0 0 0 0 0 0 0 0 0 0 0 0 0 0 0 0 0 0 0 0 0 0 0
0 0 0 0 0 0 0 0 0 0 0 0 0 0 0 0 0 0 0 0 0 0 0 0 0 0 0 0 0 0 0 0 0 0 0 0 0 0 0 0 0 0 0 0
0 0 0 0 0 0 0 0 0 0 0 0 0 0 0 0 0 0 0 0 0 0 0 0 0 0 0 0 0 0 0 0 0 0 0 0 0 0 0 0 0 0 0 0
0 0 0 0 0 0 0 0 0 0 0 0 0 0 0 0 0 0 0 0 0 0 0 0 0 0 0 0 0 0 0 0 0 0 0 0 0 0 0 0 0 0 0 0
0 0 0 0 0 0 0 0 0 0 0 -0 0 0 0 0 0 0 0 0 0 0 0 0 0 0 0 0 0 0 0 0 0 0 0 0 0 0 0 0 0 0 0 0
0 0 0 0 0 0 0 0 0 0 0 0 0 0 0 0 0 0 0 0 0 0 0 0 0 0 0 0 0 0 0 0 0 0 0 0 0 0 0 0 0 0 0 0
0 0 0 0 0 0 0 0 0 0 0 0 0 0 0 0 0 0 0 0 0 0 0 0 0 0 0 0 0 0 0 0 0 0 0 0 0 0 0 0 0 0 0 0
0 0 0 0 0 0 0 0 0 0 0 0 0 0 0 0 0 0 0 0 0 0 0 0 0 0 0 0 0 0 0 0 0 0 0 0 0 0 0 0 0 0 0 0
0 -0 -0 -0 0 0 0 0 0 0 0 0 0 0 0 0 0 0 0 0 0 0 0 0 0 0 0 0 0 0 0 0 0 0 0 0 0 0 0 0 0 0 0 0
0 -0 -0 -0 0 0 0 0 0 0 0 0 0 0 0 0 0 0 0 0 0 0 0 0 0 0 0 0 0 0 0 0 0 0 0 0 0 0 0 0 0 0 0 0
0 -0 0 0 0 0 0 0 0 0 0 0 0 0 0 0 0 0 0 0 0 0 0 0 0 0 0 0 0 0 0 0 0 0 0 0 0 0 0 0 0 0 0 0
0 0 0 0 0 0 0 0 0 0 0 0 0 0 0 0 0 0 0 0 0 0 0 0 0 0 0 0 0 0 0 0 0 0 0 0 0 0 0 0 0 0 0 0
0 0 0 0 0 0 0 0 0 0 0 0 0 0 0 0 0 0 0 0 0 0 0 0 0 0 0 0 0 0 0 0 0 0 0 0 0 0 0 0 0 0 0 0
0 0 0 0 0 0 0 0 0 0 0 0 0 0 0 0 0 0 0 0 0 0 0 0 0 0 0 0 0 0 0 0 0 0 0 0 0 0 0 0 0 0 0 0
0 0 0 0 0 0 0 0 0 0 0 0 0 0 0 0 0 0 0 0 0 0 0 0 0 0 0 0 0 0 0 0 0 0 0 0 0 0 0 0 0 0 0 0
0 0 0 0 0 0 0 0 0 0 0 0 0 0 0 0 0 0 0 0 0 0 0 0 0 0 0 0 0 0 0 0 0 0 0 0 0 0 0 0 0 0 0 0
0 0 0 0 0 0 0 0 0 0 0 0 0 0 0 0 0 0 0 0 0 0 0 0 0 0 0 0 0 0 0 0 0 0 0 0 0 0 0 0 0 0 0 0
0 0 0 0 0 0 0 0 0 0 0 0 0 0 0 0 0 0 0 0 0 0 0 0 0 0 0 0 0 0 0 0 0 0 0 0 0 0 0 0 0 0 0 0
0 0 0 0 0 0 0 0 0 0 0 0 0 0 0 0 0 0 0 0 0 0 0 0 0 0 0 0 0 0 0 0 0 0 0 0 0 0 0 0 0 0 0 0
0 0 0 0 0 0 0 0 0 0 0 0 0 0 0 0 0 0 0 0 0 0 0 0 0 0 0 0 0 0 0 0 0 0 0 0 0 0 0 0 0 0 0 0
0 0 0 0 0 0 0 0 0 0 0 0 0 0 0 0 0 0 0 0 0 0 0 0 0 0 0 0 0 0 0 0 0 0 0 0 0 0 0 0 0 0 0 0
Wind_Speed_500mb
4 10 6 8 6 9 10 6 6 4 2 4 9 13 19 14 23 31 29 29 31 30 29 26 23 28 33 28 21 17 16 13 10 9 6 7 9 10 13 15 19 21 23 26
11 8 2 5 5 8 6 6 4 2 1 3 8 19 19 13 21 42 41 32 33 38 35 32 30 31 29 24 21 19 16 13 11 8 7 8 10 10 11 14 17 21 23 25
13 3 3 7 7 8 5 6 7 4 3 4 10 15 8 1 5 11 25 36 36 43 43 38 35 31 28 24 22 20 17 14 12 10 9 9 9 9 11 13 15 18 21 24
11 7 4 8 8 3 4 1 1 10 7 6 6 9 10 2 4 2 7 27 40 44 39 34 32 31 27 26 24 21 18 14 12 10 9 9 10 10 10 11 13 17 21 23
3 5 7 10 3 1 6 6 6 6 8 6 4 7 15 4 7 10 12 18 35 40 34 31 30 27 27 26 22 20 17 16 14 11 10 11 11 10 10 10 13 15 18 21
5 5 6 4 4 4 8 9 13 9 6 5 3 9 12 6 5 2 7 23 34 35 30 25 23 24 24 25 23 22 20 18 16 14 14 13 12 11 10 10 12 13 16 19
10 7 7 6 8 6 10 11 6 7 7 10 3 5 18 6 1 2 15 31 32 31 27 22 22 23 22 21 21 23 22 20 18 17 16 16 15 15 13 12 13 14 16 18
9 7 5 10 4 9 6 8 9 11 5 8 4 11 11 6 1 5 4 25 25 27 24 20 17 18 19 22 25 27 27 25 23 21 20 20 20 18 16 15 15 16 19 22
9 4 4 6 3 4 5 3 6 13 3 5 5 14 10 3 4 5 4 20 25 24 20 17 18 20 24 27 28 28 28 27 26 24 24 24 23 22 20 19 18 18 20 23
9 10 3 3 1 8 4 9 8 6 4 7 9 11 11 3 9 4 9 21 24 19 18 19 21 24 26 26 27 30 31 31 30 29 28 28 27 26 24 22 21 20 20 22
5 6 5 4 7 13 4 2 8 7 7 8 3 12 12 9 8 10 10 13 10 9 13 19 26 28 27 26 27 29 30 30 31 31 30 32 31 29 28 26 24 23 23 24
2 8 7 2 1 1 2 7 9 9 9 2 5 13 5 5 5 19 21 22 17 13 10 9 12 17 28 29 29 27 28 29 26 27 29 32 33 30 29 29 28 28 29 30
4 3 5 10 7 5 6 7 6 8 5 11 10 11 3 10 16 21 30 23 21 17 11 9 7 9 10 24 34 36 32 28 26 26 26 26 30 32 32 32 32 34 36 37
2 4 10 12 8 9 8 10 12 11 7 10 14 7 9 11 13 19 23 24 24 21 18 18 19 22 20 14 15 28 32 32 32 29 27 28 28 31 33 35 37 38 41 43
6 3 3 6 7 4 5 7 14 16 7 14 6 15 11 18 16 25 25 23 22 18 15 16 18 18 19 20 19 11 9 19 27 29 29 28 30 33 35 36 39 42 43 43
4 2 3 5 3 11 12 17 20 22 10 18 11 33 8 13 29 29 30 25 19 16 15 15 15 16 20 21 21 20 17 12 12 15 21 27 33 37 40 43 44 45 46 46
5 8 4 7 5 10 15 17 23 11 10 16 17 14 15 12 24 37 31 23 20 15 10 6 9 14 17 20 21 22 23 24 27 31 34 39 43 46 46 46 46 45 47 52
8 5 3 4 7 4 8 0 7 15 7 15 1 5 13 18 26 23 19 20 15 8 1 7 11 15 17 17 18 20 25 28 31 34 38 42 46 48 47 46 46 46 47 50
3 7 1 4 6 13 10 3 7 9 8 7 10 9 18 31 24 10 17 13 8 4 7 10 15 18 18 19 23 26 28 31 36 41 46 49 52 56 56 57 56 55 56 56
8 6 7 5 6 11 5 2 1 1 9 3 16 18 30 25 6 7 26 16 10 9 9 13 16 17 18 23 28 32 36 42 47 52 55 56 57 59 62 62 64 65 65 66
6 2 11 8 6 14 7 3 2 5 8 14 27 33 40 11 16 7 24 15 8 14 16 17 19 23 28 34 40 44 48 53 56 60 63 66 66 65 66 69 69 70 71 73
13 13 8 5 5 14 3 5 7 3 8 18 25 25 25 18 13 12 10 11 16 16 18 21 28 35 40 44 50 57 61 60 61 67 73 74 71 70 70 70 69 65 63 64
5 10 8 15 10 1 4 3 7 6 8 18 18 11 7 5 3 8 15 13 13 17 23 30 38 46 52 54 58 67 71 64 63 70 81 82 78 76 73 66 62 62 65 67
5 6 5 1 1 4 7 10 10 10 8 13 13 15 17 16 11 13 12 14 19 26 34 42 50 58 65 65 64 64 66 68 63 77 85 79 76 72 69 66 66 69 73 73
8 1 4 6 10 10 14 13 16 18 13 12 13 10 13 14 12 12 16 22 33 43 50 56 61 65 69 70 72 71 61 57 75 79 74 73 70 71 74 75 76 72 76 71
14 9 5 11 10 9 13 20 16 22 19 19 10 13 15 13 11 17 27 36 47 56 62 65 66 69 72 72 74 74 70 68 68 71 72 74 75 76 75 75 82 76 73 69
Wind_Direction_500mb
113 79 153 168 114 138 118 119 161 254 341 167 243 268 270 247 233 241 239 223 216 209 205 206 207 201 201 209 229 228 235 242 255 233 245 280 301 313 325 328 333 337 340 341
43 106 220 95 116 99 95 127 216 340 106 143 356 282 260 222 235 241 239 226 213 200 196 195 197 198 207 225 227 226 234 245 234 230 245 262 287 304 321 328 335 340 342 342
125 157 298 108 64 102 64 165 188 176 92 45 337 297 270 112 221 253 242 231 208 198 192 194 196 204 214 222 225 227 234 239 223 232 247 277 296 308 316 325 333 339 345 348
89 323 129 97 87 106 153 216 193 123 101 215 17 270 295 315 263 266 235 202 194 191 193 195 200 209 219 224 223 229 233 224 227 235 263 286 291 299 307 320 339 349 351 350
245 32 77 76 84 334 137 71 68 73 94 72 358 65 270 357 261 241 233 191 187 190 195 202 212 222 221 218 227 233 232 224 230 243 268 278 283 289 304 326 339 342 345 349
65 42 50 113 80 74 141 76 46 56 71 18 337 125 282 211 227 58 203 198 191 192 198 209 213 213 217 226 233 234 232 230 234 250 266 275 282 288 295 312 327 335 343 349
13 353 341 46 81 33 72 65 9 0 4 220 297 37 248 280 289 289 211 199 196 198 203 208 214 218 226 237 244 239 237 238 242 256 268 274 275 279 286 302 314 326 339 344
140 326 19 350 50 168 74 133 148 199 195 268 15 241 256 212 35 348 324 201 194 196 204 218 228 235 245 251 251 246 243 241 245 258 269 270 269 272 278 292 305 319 330 336
139 21 320 48 10 72 182 103 144 105 16 38 235 285 321 162 340 357 57 181 185 195 210 229 242 254 259 261 259 256 253 251 253 264 271 274 275 276 279 287 298 308 320 329
204 95 25 329 85 30 73 155 69 3 182 260 291 279 238 284 230 116 125 171 185 201 220 242 255 264 265 267 260 254 250 249 251 260 269 273 272 272 274 282 290 298 308 318
140 96 282 40 202 177 116 118 61 118 143 180 267 262 211 235 231 177 142 144 171 208 248 262 264 261 259 258 256 259 259 260 263 271 278 280 277 274 275 280 283 287 295 301
23 120 145 191 302 329 198 197 155 131 217 212 153 273 0 356 29 128 119 123 113 97 67 16 327 274 248 253 258 259 263 264 268 276 282 282 277 274 274 277 281 287 292 294
167 26 62 357 0 356 223 200 140 108 72 202 150 261 73 107 104 131 134 127 110 96 79 44 3 356 306 264 255 252 257 262 266 276 286 291 289 284 281 281 281 284 287 290
59 134 168 186 195 135 194 197 180 150 139 187 223 233 218 196 167 153 140 123 104 87 76 69 58 48 36 360 298 258 252 253 258 268 277 287 291 289 287 288 290 291 294 294
103 191 94 275 259 218 239 200 187 205 195 185 263 206 229 203 186 169 146 134 123 109 91 70 58 47 39 36 33 17 285 264 267 271 274 283 290 293 293 293 293 294 292 292
1 176 106 306 27 209 253 224 215 224 217 258 279 277 193 154 164 164 167 160 138 112 88 68 47 28 19 17 14 10 9 352 333 302 292 291 290 291 293 295 295 295 292 290
123 135 110 257 352 320 286 222 200 194 197 192 218 239 166 181 177 171 167 168 155 145 131 83 27 8 358 351 346 337 328 320 312 309 308 306 304 303 303 300 296 292 290 294
130 97 61 296 8 274 260 114 170 204 225 218 228 213 184 163 169 169 175 172 162 156 134 334 347 348 342 339 333 333 332 331 325 321 316 312 309 306 305 305 304 300 299 297
83 115 133 207 210 293 291 134 150 170 281 189 190 124 136 136 134 146 171 176 188 252 297 307 316 319 327 332 332 330 328 329 327 323 319 317 314 310 306 301 298 297 295 293
85 88 144 147 206 239 260 176 96 140 289 147 152 146 145 142 156 236 188 198 231 262 280 302 312 315 324 323 322 322 325 327 327 323 319 315 311 307 302 299 295 293 291 289
136 140 206 201 253 286 269 204 36 96 271 162 166 164 171 188 213 188 185 205 256 296 294 301 299 304 311 314 312 312 315 317 319 318 315 312 309 306 303 303 302 298 295 293
168 154 196 142 195 276 166 112 171 241 135 175 177 182 188 200 177 180 196 279 278 269 290 300 300 306 309 308 305 305 303 310 312 317 316 311 307 305 304 304 302 299 298 298
226 196 182 189 212 232 213 230 304 210 211 192 199 196 202 197 214 256 268 251 282 305 318 317 315 308 303 303 303 301 299 303 302 306 310 308 305 304 303 303 301 300 302 303
261 176 218 115 220 233 266 269 257 230 234 209 211 191 219 267 259 257 276 295 309 317 319 319 314 307 304 304 302 298 298 295 295 302 306 303 304 304 304 304 302 302 303 305
219 92 178 265 274 294 264 270 262 232 215 201 213 248 253 254 258 276 294 300 308 310 309 308 306 305 303 303 301 301 301 295 297 301 301 301 302 300 300 299 299 301 301 303
220 205 189 266 277 256 275 307 271 227 218 219 226 243 255 264 282 297 297 303 305 305 304 304 305 307 306 305 303 303 303 303 302 301 299 299 300 300 299 299 299 299 301 301
Wind_Speed_850mb
4 10 6 8 6 9 10 6 6 4 2 4 9 13 19 14 23 31 29 29 31 30 29 26 23 28 33 28 21 17 16 13 10 9 6 7 9 10 13 15 19 21 23 26
11 8 2 5 5 8 6 6 4 2 1 3 8 19 19 13 21 42 41 32 33 38 35 32 30 31 29 24 21 19 16 13 11 8 7 8 10 10 11 14 17 21 23 25
13 3 3 7 7 8 5 6 7 4 3 4 10 15 8 1 5 11 25 36 36 43 43 38 35 31 28 24 22 20 17 14 12 10 9 9 9 9 11 13 15 18 21 24
11 7 4 8 8 3 4 1 1 10 7 6 6 9 10 2 4 2 7 27 40 44 39 34 32 31 27 26 24 21 18 14 12 10 9 9 10 10 10 11 13 17 21 23
3 5 7 10 3 1 6 6 6 6 8 6 4 7 15 4 7 10 12 18 35 40 34 31 30 27 27 26 22 20 17 16 14 11 10 11 11 10 10 10 13 15 18 21
5 5 6 4 4 4 8 9 13 9 6 5 3 9 12 6 5 2 7 23 34 35 30 25 23 24 24 25 23 22 20 18 16 14 14 13 12 11 10 10 12 13 16 19
10 7 7 6 8 6 10 11 6 7 7 10 3 5 18 6 1 2 15 31 32 31 27 22 22 23 22 21 21 23 22 20 18 17 16 16 15 15 13 12 13 14 16 18
9 7 5 10 4 9 6 8 9 11 5 8 4 11 11 6 1 5 4 25 25 27 24 20 17 18 19 22 25 27 27 25 23 21 20 20 20 18 16 15 15 16 19 22
9 4 4 6 3 4 5 3 6 13 3 5 5 14 10 3 4 5 4 20 25 24 20 17 18 20 24 27 28 28 28 27 26 24 24 24 23 22 20 19 18 18 20 23
9 10 3 3 1 8 4 9 8 6 4 7 9 11 11 3 9 4 9 21 24 19 18 19 21 24 26 26 27 30 31 31 30 29 28 28 27 26 24 22 21 20 20 22
5 6 5 4 7 13 4 2 8 7 7 8 3 12 12 9 8 10 10 13 10 9 13 19 26 28 27 26 27 29 30 30 31 31 30 32 31 29 28 26 24 23 23 24
2 8 7 2 1 1 2 7 9 9 9 2 5 13 5 5 5 19 21 22 17 13 10 9 12 17 28 29 29 27 28 29 26 27 29 32 33 30 29 29 28 28 29 30
4 3 5 10 7 5 6 7 6 8 5 11 10 11 3 10 16 21 30 23 21 17 11 9 7 9 10 24 34 36 32 28 26 26 26 26 30 32 32 32 32 34 36 37
2 4 10 12 8 9 8 10 12 11 7 10 14 7 9 11 13 19 23 24 24 21 18 18 19 22 20 14 15 28 32 32 32 29 27 28 28 31 33 35 37 38 41 43
6 3 3 6 7 4 5 7 14 16 7 14 6 15 11 18 16 25 25 23 22 18 15 16 18 18 19 20 19 11 9 19 27 29 29 28 30 33 35 36 39 42 43 43
4 2 3 5 3 11 12 17 20 22 10 18 11 33 8 13 29 29 30 25 19 16 15 15 15 16 20 21 21 20 17 12 12 15 21 27 33 37 40 43 44 45 46 46
5 8 4 7 5 10 15 17 23 11 10 16 17 14 15 12 24 37 31 23 20 15 10 6 9 14 17 20 21 22 23 24 27 31 34 39 43 46 46 46 46 45 47 52
8 5 3 4 7 4 8 0 7 15 7 15 1 5 13 18 26 23 19 20 15 8 1 7 11 15 17 17 18 20 25 28 31 34 38 42 46 48 47 46 46 46 47 50
3 7 1 4 6 13 10 3 7 9 8 7 10 9 18 31 24 10 17 13 8 4 7 10 15 18 18 19 23 26 28 31 36 41 46 49 52 56 56 57 56 55 56 56
8 6 7 5 6 11 5 2 1 1 9 3 16 18 30 25 6 7 26 16 10 9 9 13 16 17 18 23 28 32 36 42 47 52 55 56 57 59 62 62 64 65 65 66
6 2 11 8 6 14 7 3 2 5 8 14 27 33 40 11 16 7 24 15 8 14 16 17 19 23 28 34 40 44 48 53 56 60 63 66 66 65 66 69 69 70 71 73
13 13 8 5 5 14 3 5 7 3 8 18 25 25 25 18 13 12 10 11 16 16 18 21 28 35 40 44 50 57 61 60 61 67 73 74 71 70 70 70 69 65 63 64
5 10 8 15 10 1 4 3 7 6 8 18 18 11 7 5 3 8 15 13 13 17 23 30 38 46 52 54 58 67 71 64 63 70 81 82 78 76 73 66 62 62 65 67
5 6 5 1 1 4 7 10 10 10 8 13 13 15 17 16 11 13 12 14 19 26 34 42 50 58 65 65 64 64 66 68 63 77 85 79 76 72 69 66 66 69 73 73
8 1 4 6 10 10 14 13 16 18 13 12 13 10 13 14 12 12 16 22 33 43 50 56 61 65 69 70 72 71 61 57 75 79 74 73 70 71 74 75 76 72 76 71
14 9 5 11 10 9 13 20 16 22 19 19 10 13 15 13 11 17 27 36 47 56 62 65 66 69 72 72 74 74 70 68 68 71 72 74 75 76 75 75 82 76 73 69
Wind_Direction_850mb
113 79 153 168 114 138 118 119 161 254 341 167 243 268 270 247 233 241 239 223 216 209 205 206 207 201 201 209 229 228 235 242 255 233 245 280 301 313 325 328 333 337 340 341
43 106 220 95 116 99 95 127 216 340 106 143 356 282 260 222 235 241 239 226 213 200 196 195 197 198 207 225 227 226 234 245 234 230 245 262 287 304 321 328 335 340 342 342
125 157 298 108 64 102 64 165 188 176 92 45 337 297 270 112 221 253 242 231 208 198 192 194 196 204 214 222 225 227 234 239 223 232 247 277 296 308 316 325 333 339 345 348
89 323 129 97 87 106 153 216 193 123 101 215 17 270 295 315 263 266 235 202 194 191 193 195 200 209 219 224 223 229 233 224 227 235 263 286 291 299 307 320 339 349 351 350
245 32 77 76 84 334 137 71 68 73 94 72 358 65 270 357 261 241 233 191 187 190 195 202 212 222 221 218 227 233 232 224 230 243 268 278 283 289 304 326 339 342 345 349
65 42 50 113 80 74 141 76 46 56 71 18 337 125 282 211 227 58 203 198 191 192 198 209 213 213 217 226 233 234 232 230 234 250 266 275 282 288 295 312 327 335 343 349
13 353 341 46 81 33 72 65 9 0 4 220 297 37 248 280 289 289 211 199 196 198 203 208 214 218 226 237 244 239 237 238 242 256 268 274 275 279 286 302 314 326 339 344
140 326 19 350 50 168 74 133 148 199 195 268 15 241 256 212 35 348 324 201 194 196 204 218 228 235 245 251 251 246 243 241 245 258 269 270 269 272 278 292 305 319 330 336
139 21 320 48 10 72 182 103 144 105 16 38 235 285 321 162 340 357 57 181 185 195 210 229 242 254 259 261 259 256 253 251 253 264 271 274 275 276 279 287 298 308 320 329
204 95 25 329 85 30 73 155 69 3 182 260 291 279 238 284 230 116 125 171 185 201 220 242 255 264 265 267 260 254 250 249 251 260 269 273 272 272 274 282 290 298 308 318
140 96 282 40 202 177 116 118 61 118 143 180 267 262 211 235 231 177 142 144 171 208 248 262 264 261 259 258 256 259 259 260 263 271 278 280 277 274 275 280 283 287 295 301
23 120 145 191 302 329 198 197 155 131 217 212 153 273 0 356 29 128 119 123 113 97 67 16 327 274 248 253 258 259 263 264 268 276 282 282 277 274 274 277 281 287 292 294
167 26 62 357 0 356 223 200 140 108 72 202 150 261 73 107 104 131 134 127 110 96 79 44 3 356 306 264 255 252 257 262 266 276 286 291 289 284 281 281 281 284 287 290
59 134 168 186 195 135 194 197 180 150 139 187 223 233 218 196 167 153 140 123 104 87 76 69 58 48 36 360 298 258 252 253 258 268 277 287 291 289 287 288 290 291 294 294
103 191 94 275 259 218 239 200 187 205 195 185 263 206 229 203 186 169 146 134 123 109 91 70 58 47 39 36 33 17 285 264 267 271 274 283 290 293 293 293 293 294 292 292
1 176 106 306 27 209 253 224 215 224 217 258 279 277 193 154 164 164 167 160 138 112 88 68 47 28 19 17 14 10 9 352 333 302 292 291 290 291 293 295 295 295 292 290
123 135 110 257 352 320 286 222 200 194 197 192 218 239 166 181 177 171 167 168 155 145 131 83 27 8 358 351 346 337 328 320 312 309 308 306 304 303 303 300 296 292 290 294
130 97 61 296 8 274 260 114 170 204 225 218 228 213 184 163 169 169 175 172 162 156 134 334 347 348 342 339 333 333 332 331 325 321 316 312 309 306 305 305 304 300 299 297
83 115 133 207 210 293 291 134 150 170 281 189 190 124 136 136 134 146 171 176 188 252 297 307 316 319 327 332 332 330 328 329 327 323 319 317 314 310 306 301 298 297 295 293
85 88 144 147 206 239 260 176 96 140 289 147 152 146 145 142 156 236 188 198 231 262 280 302 312 315 324 323 322 322 325 327 327 323 319 315 311 307 302 299 295 293 291 289
136 140 206 201 253 286 269 204 36 96 271 162 166 164 171 188 213 188 185 205 256 296 294 301 299 304 311 314 312 312 315 317 319 318 315 312 309 306 303 303 302 298 295 293
168 154 196 142 195 276 166 112 171 241 135 175 177 182 188 200 177 180 196 279 278 269 290 300 300 306 309 308 305 305 303 310 312 317 316 311 307 305 304 304 302 299 298 298
226 196 182 189 212 232 213 230 304 210 211 192 199 196 202 197 214 256 268 251 282 305 318 317 315 308 303 303 303 301 299 303 302 306 310 308 305 304 303 303 301 300 302 303
261 176 218 115 220 233 266 269 257 230 234 209 211 191 219 267 259 257 276 295 309 317 319 319 314 307 304 304 302 298 298 295 295 302 306 303 304 304 304 304 302 302 303 305
219 92 178 265 274 294 264 270 262 232 215 201 213 248 253 254 258 276 294 300 308 310 309 308 306 305 303 303 301 301 301 295 297 301 301 301 302 300 300 299 299 301 301 303
220 205 189 266 277 256 275 307 271 227 218 219 226 243 255 264 282 297 297 303 305 305 304 304 305 307 306 305 303 303 303 303 302 301 299 299 300 300 299 299 299 299 301 301